Temp
13 12 12 12 11 11 10 10 10 10 9 9 9 9 9 8 8 8 8 8 8 8 8 8 8 8 7 7 7 7 7 6 6 6 6 5 5 5 5 4 4 4 3 3 3 3 3 2 2 2 1 1 1 1 1 1 1 1 1 0 0 0 0 0 0 0 0 0 0
13 13 12 12 11 11 11 10 10 10 10 9 9 9 9 9 8 8 8 8 8 8 8 8 8 8 8 7 7 7 7 6 6 6 6 5 5 5 5 4 4 4 4 3 3 3 2 2 2 2 1 1 1 1 1 1 1 1 1 0 0 0 0 -0 -0 -0 -0 0 0
13 13 13 12 12 11 11 11 11 10 10 10 10 9 9 9 9 8 8 8 8 8 8 8 8 8 8 7 7 7 7 6 6 6 6 5 5 5 4 4 4 4 4 3 3 3 2 2 2 2 1 1 1 1 1 1 1 1 0 0 0 0 -0 -0 -0 -0 -0 -0 -0
13 13 13 13 12 12 12 11 11 11 11 10 10 10 9 9 9 9 9 8 8 8 8 8 8 8 8 8 7 7 7 7 6 6 6 5 5 5 4 4 4 4 3 3 3 3 2 2 2 1 1 1 1 1 1 1 1 0 0 0 0 -0 -0 -0 -0 -1 -1 -1 -1
14 13 13 13 13 13 12 12 12 11 11 11 10 10 10 9 9 9 9 8 8 8 8 8 8 8 8 8 7 7 7 6 6 6 5 5 5 5 4 4 4 4 3 3 3 3 2 2 2 1 1 1 1 1 1 1 0 0 0 -0 -0 -0 -0 -1 -1 -1 -1 -1 -1
13 13 13 13 13 13 12 12 12 12 11 11 11 10 10 10 9 9 9 9 9 8 8 8 8 8 8 7 7 7 7 6 6 6 5 5 5 5 4 4 4 4 3 3 3 3 2 2 2 1 1 1 1 1 1 0 0 0 -0 -0 -0 -1 -1 -1 -1 -1 -1 -1 -1
13 13 13 13 13 13 12 12 12 12 12 11 11 10 10 10 10 9 9 9 9 9 8 8 8 8 8 7 7 7 7 6 6 6 5 5 5 4 4 4 4 3 3 3 3 2 2 2 1 1 1 1 0 0 0 0 0 -0 -0 -0 -1 -1 -1 -1 -1 -1 -1 -1 -1
13 13 13 13 12 12 12 12 12 12 12 11 11 11 10 10 10 10 9 9 9 8 8 8 8 8 7 7 7 7 7 6 6 6 5 5 5 4 4 4 3 3 3 3 3 2 2 2 1 1 1 1 0 0 0 -0 -0 -0 -0 -1 -1 -1 -1 -1 -1 -1 -1 -2 -2
12 12 12 12 12 12 12 12 12 12 11 11 11 11 11 10 10 10 9 9 9 9 8 8 8 7 7 7 7 7 6 6 6 5 5 5 4 4 4 4 3 3 3 3 2 2 2 2 1 1 1 1 0 0 0 -0 -0 -0 -0 -1 -1 -1 -1 -1 -1 -1 -2 -2 -2
12 12 12 12 12 12 12 12 12 11 11 11 11 11 11 10 10 10 10 9 9 9 8 8 8 7 7 7 7 6 6 6 6 5 5 5 4 4 4 3 3 3 3 2 2 2 2 1 1 1 1 1 0 0 -0 -0 -0 -1 -1 -1 -1 -1 -1 -1 -2 -2 -2 -2 -2
11 11 11 11 11 11 11 11 11 11 11 11 11 11 11 10 10 10 10 9 9 9 8 8 8 7 7 7 6 6 6 6 5 5 5 4 4 4 4 3 3 3 2 2 2 2 1 1 1 1 1 0 0 0 -0 -0 -1 -1 -1 -1 -1 -1 -1 -1 -2 -2 -2 -2 -2
11 11 11 11 11 11 11 11 11 11 11 11 11 11 10 10 10 10 10 9 9 9 8 8 8 7 7 7 6 6 6 5 5 5 4 4 4 4 3 3 3 3 2 2 2 1 1 1 1 0 0 0 -0 -0 -0 -1 -1 -1 -1 -1 -1 -1 -1 -2 -2 -2 -2 -2 -2
11 11 11 11 10 10 10 10 10 10 10 10 10 10 10 10 10 10 10 9 9 9 9 8 8 7 7 7 6 6 6 5 5 5 4 4 4 4 3 3 3 2 2 2 2 1 1 1 1 0 0 0 -0 -0 -1 -1 -1 -1 -1 -1 -2 -2 -2 -2 -2 -2 -2 -2 -3
11 11 11 10 10 10 10 10 10 10 10 10 10 10 10 10 10 9 9 9 9 9 8 8 8 7 7 7 6 6 6 5 5 4 4 4 4 3 3 3 2 2 2 2 1 1 1 1 1 0 0 0 -0 -0 -1 -1 -1 -1 -1 -2 -2 -2 -2 -2 -2 -2 -2 -3 -3
11 11 11 10 10 10 10 10 10 10 10 10 10 9 9 9 9 9 9 9 9 8 8 8 8 7 7 7 6 6 6 5 5 4 4 4 3 3 3 2 2 2 2 1 1 1 1 1 1 0 0 0 -0 -0 -1 -1 -1 -1 -1 -2 -2 -2 -2 -2 -2 -2 -2 -3 -3
11 11 11 10 10 10 10 10 10 10 9 9 9 9 9 9 9 9 8 8 8 8 8 8 7 7 7 7 6 6 6 5 5 4 4 4 3 3 3 2 2 2 2 1 1 1 1 1 1 0 0 0 -0 -0 -1 -1 -1 -1 -2 -2 -2 -2 -2 -2 -2 -2 -3 -3 -3
11 11 11 10 10 10 10 10 10 10 10 9 9 9 9 9 8 8 8 8 8 8 7 7 7 7 7 7 6 6 5 5 5 4 4 3 3 3 3 2 2 2 2 1 1 1 1 1 0 0 0 -0 -0 -0 -1 -1 -1 -1 -2 -2 -2 -2 -2 -2 -2 -3 -3 -3 -3
11 11 11 10 10 10 10 10 10 10 10 9 9 9 9 8 8 8 8 8 7 7 7 7 7 7 7 6 6 6 5 5 5 4 4 4 3 3 3 2 2 2 2 1 1 1 1 1 0 0 -0 -0 -0 -1 -1 -1 -1 -1 -2 -2 -2 -2 -2 -2 -2 -3 -3 -3 -3
11 11 11 10 10 10 10 10 10 10 9 9 9 9 9 8 8 8 8 7 7 7 7 7 7 6 6 6 6 5 5 5 4 4 4 4 3 3 3 2 2 2 2 1 1 1 1 0 0 -0 -0 -0 -1 -1 -1 -1 -1 -2 -2 -2 -2 -2 -2 -2 -2 -3 -3 -3 -3
11 10 10 10 10 10 10 10 10 9 9 9 9 9 9 8 8 8 7 7 7 7 7 6 6 6 6 6 5 5 5 5 4 4 4 4 3 3 3 2 2 2 1 1 1 1 1 0 0 -0 -0 -1 -1 -1 -1 -1 -2 -2 -2 -2 -2 -2 -2 -3 -3 -3 -3 -3 -3
10 10 10 10 10 10 10 10 10 9 9 9 9 9 9 8 8 8 7 7 7 7 6 6 6 6 5 5 5 5 5 4 4 4 4 3 3 3 3 2 2 2 1 1 1 1 0 0 -0 -0 -0 -1 -1 -1 -1 -2 -2 -2 -2 -2 -2 -3 -3 -3 -3 -3 -3 -3 -3
10 10 10 10 10 10 10 10 10 9 9 9 9 9 9 8 8 8 7 7 7 6 6 6 6 5 5 5 5 5 5 4 4 4 3 3 3 3 2 2 2 2 1 1 1 1 0 0 -0 -0 -1 -1 -1 -1 -1 -2 -2 -2 -2 -3 -3 -3 -3 -3 -3 -3 -3 -3 -3
10 10 10 10 10 10 10 10 9 9 9 9 9 9 9 8 8 8 7 7 7 6 6 6 6 5 5 5 5 4 4 4 4 3 3 3 3 3 2 2 2 1 1 1 1 0 0 -0 -0 -1 -1 -1 -1 -1 -2 -2 -2 -2 -3 -3 -3 -3 -3 -3 -3 -3 -3 -3 -3
10 10 10 10 10 10 10 9 9 9 9 9 9 9 9 8 8 8 7 7 7 6 6 6 6 5 5 5 4 4 4 4 3 3 3 3 3 2 2 2 1 1 1 1 1 0 0 -0 -1 -1 -1 -1 -1 -2 -2 -2 -2 -2 -3 -3 -3 -3 -4 -4 -4 -4 -4 -4 -4
10 10 10 10 10 10 10 9 9 9 9 9 9 9 8 8 8 7 7 7 7 6 6 6 6 5 5 5 4 4 4 3 3 3 3 2 2 2 2 1 1 1 1 1 0 0 -0 -1 -1 -1 -1 -2 -2 -2 -2 -2 -2 -3 -3 -3 -3 -4 -4 -4 -4 -4 -4 -4 -4
10 10 10 10 10 10 9 9 9 9 9 9 9 9 8 8 8 7 7 7 6 6 6 6 5 5 5 4 4 4 3 3 3 2 2 2 2 2 1 1 1 1 0 0 0 -0 -0 -1 -1 -1 -2 -2 -2 -2 -3 -3 -3 -3 -3 -3 -4 -4 -4 -4 -4 -4 -4 -4 -4
10 10 10 10 10 9 9 9 9 9 9 9 9 9 8 8 8 7 7 6 6 6 6 5 5 5 5 4 4 3 3 3 3 2 2 2 2 1 1 1 0 0 0 0 -0 -0 -0 -0 -1 -1 -2 -2 -2 -3 -3 -3 -3 -3 -3 -4 -4 -4 -4 -4 -4 -5 -5 -5 -5
10 10 10 10 10 9 9 9 9 9 9 9 9 9 8 8 7 7 7 6 6 6 5 5 5 5 4 4 4 3 3 3 3 2 2 2 1 1 1 1 0 0 0 -0 -0 -0 -0 -0 -0 -0 -1 -2 -2 -3 -3 -3 -3 -3 -4 -4 -4 -4 -4 -4 -5 -5 -5 -5 -5
10 10 10 10 9 9 9 9 9 9 9 9 9 8 8 8 7 7 7 6 6 6 5 5 5 4 4 4 3 3 3 3 3 2 2 1 1 1 1 0 0 0 -0 -0 -1 -0 -0 -0 0 0 -0 -1 -2 -3 -3 -3 -3 -4 -4 -4 -4 -4 -4 -5 -5 -5 -5 -5 -5
10 10 10 9 9 9 9 9 9 9 9 9 9 8 8 8 7 7 7 6 6 6 5 5 5 4 4 4 3 3 3 3 2 2 2 1 1 1 0 0 0 -0 -0 -1 -1 -0 -0 -0 -0 0 0 0 -1 -2 -3 -3 -4 -4 -4 -4 -4 -4 -4 -5 -5 -5 -5 -5 -5
10 10 9 9 9 9 9 9 9 9 9 9 9 8 8 8 7 7 7 6 6 6 5 5 4 4 4 4 3 3 3 3 2 2 1 1 1 1 0 0 0 -0 -0 -1 -1 -1 -0 -0 -0 -0 0 0 0 -1 -2 -3 -3 -4 -4 -4 -4 -4 -4 -5 -5 -5 -5 -5 -5
10 10 9 9 9 9 9 9 9 9 9 9 9 8 8 8 7 7 7 6 6 5 5 5 4 4 4 3 3 3 3 2 2 2 1 1 1 1 0 0 -0 -0 -0 -1 -1 -1 -0 -0 -0 -0 -0 0 0 -0 -1 -2 -3 -3 -4 -4 -4 -4 -4 -5 -5 -5 -5 -5 -5
10 10 9 9 9 9 9 9 9 9 9 9 8 8 8 8 7 7 7 6 6 5 5 5 4 4 4 3 3 3 3 2 2 2 1 1 1 0 0 0 -0 -0 -1 -1 -1 -1 -0 -0 -0 -0 -0 -0 -0 -0 -0 -1 -2 -3 -3 -4 -4 -4 -5 -5 -5 -5 -5 -5 -5
10 10 9 9 9 9 9 9 9 9 9 8 8 8 8 7 7 7 7 6 6 5 5 5 4 4 4 3 3 3 3 2 2 2 1 1 1 0 0 -0 -0 -1 -1 -1 -1 -1 -1 -0 -0 -0 -0 -0 -0 -0 -0 -1 -1 -2 -3 -4 -4 -4 -5 -5 -5 -5 -5 -5 -5
10 9 9 9 9 9 9 9 9 8 8 8 8 8 8 7 7 7 6 6 6 5 5 5 4 4 4 3 3 3 2 2 2 2 1 1 1 0 -0 -0 -0 -1 -1 -1 -1 -1 -1 -1 -0 -0 -0 -0 -0 -1 -1 -1 -1 -2 -3 -3 -4 -4 -4 -5 -5 -5 -5 -5 -5
9 9 8 8 8 9 9 8 8 8 8 8 8 8 7 7 7 7 6 6 5 5 5 5 4 4 4 3 3 3 2 2 2 2 2 1 1 0 -0 -0 -0 -1 -1 -1 -1 -1 -1 -1 -1 -1 -0 -1 -1 -1 -1 -1 -1 -2 -2 -3 -4 -4 -4 -4 -5 -5 -5 -5 -5
9 8 8 8 8 8 8 8 8 8 8 8 8 7 7 7 7 6 6 6 5 5 5 5 4 4 4 4 3 3 3 2 2 2 1 1 1 0 -0 -0 -0 -1 -1 -1 -1 -1 -1 -1 -1 -1 -1 -1 -1 -1 -1 -1 -1 -2 -2 -3 -3 -4 -4 -5 -5 -5 -5 -5 -5
9 8 8 8 8 8 8 8 8 8 8 8 8 7 7 7 6 6 6 5 5 5 5 4 4 4 4 4 4 3 3 3 2 2 1 1 1 0 0 -0 -0 -1 -1 -1 -1 -1 -1 -1 -1 -1 -1 -1 -1 -1 -1 -1 -1 -2 -2 -3 -3 -4 -4 -4 -5 -5 -5 -5 -5
9 8 8 8 8 8 8 8 8 8 8 8 7 7 7 7 6 6 6 5 5 5 5 4 4 4 4 4 4 3 3 3 2 2 1 1 1 1 0 -0 -0 -1 -1 -1 -1 -1 -1 -1 -1 -1 -1 -1 -1 -1 -2 -2 -2 -2 -2 -2 -3 -4 -4 -4 -5 -5 -5 -5 -5
8 8 8 8 8 8 8 8 8 8 8 8 7 7 7 6 6 6 6 5 5 5 5 4 4 4 4 4 3 3 3 2 2 2 1 1 1 1 0 -0 -0 -0 -1 -1 -1 -2 -1 -1 -1 -1 -1 -1 -1 -1 -2 -2 -2 -2 -2 -2 -3 -4 -4 -5 -5 -5 -5 -5 -5
8 8 8 8 8 8 8 8 8 8 8 8 7 7 7 6 6 6 5 5 5 5 5 4 4 4 4 4 3 3 3 2 2 2 1 1 1 0 0 -0 -0 -0 -1 -1 -1 -1 -1 -1 -1 -1 -1 -1 -1 -1 -2 -2 -2 -2 -2 -2 -3 -3 -4 -4 -5 -5 -5 -5 -5
Height
777 777 776 776 776 776 775 775 775 775 775 776 775 775 775 775 775 774 774 774 774 773 772 772 772 771 771 772 772 772 772 772 772 773 773 773 773 773 774 774 775 775 775 776 777 778 778 779 779 780 780 780 780 780 780 781 781 782 783 783 783 784 785 785 785 785 786 787 787
775 775 775 775 775 775 774 774 774 774 774 774 773 773 773 773 772 772 772 771 771 771 770 770 770 770 770 770 770 770 770 770 770 770 771 771 771 771 772 772 772 773 773 774 775 775 776 776 777 777 777 777 777 777 778 778 779 780 780 780 780 781 782 783 782 783 784 785 785
774 774 774 774 774 773 773 772 772 772 771 771 771 771 771 771 770 770 770 769 769 769 769 769 768 768 768 768 768 768 767 767 768 768 768 769 769 769 770 770 770 770 771 771 772 773 773 774 775 775 775 775 775 775 775 775 776 777 777 777 778 779 780 780 780 781 782 783 783
773 772 772 772 772 771 771 770 770 770 769 769 769 769 769 769 768 768 767 767 767 767 767 767 767 766 766 766 766 765 765 765 766 766 766 766 767 767 767 768 768 768 769 770 770 770 771 772 772 772 772 772 772 772 772 773 774 775 775 775 776 777 777 777 778 779 780 780 781
771 771 770 770 770 770 769 769 768 768 768 768 768 767 767 766 766 766 766 765 765 765 765 765 765 765 764 764 764 763 763 763 764 764 764 764 764 765 765 766 766 766 766 767 768 768 769 770 770 770 770 769 769 769 770 770 772 772 772 773 774 774 775 775 775 776 777 778 778
770 769 769 769 768 768 768 767 767 766 766 766 766 765 765 764 764 764 764 763 763 763 763 763 763 763 763 762 762 761 761 761 762 762 762 762 762 763 763 763 764 764 764 765 765 766 767 767 768 767 767 767 767 767 767 769 770 770 770 770 771 771 772 773 773 774 775 775 776
769 768 768 767 767 766 766 766 765 765 765 765 764 763 763 762 762 762 761 761 761 761 761 761 761 761 761 760 760 760 759 759 759 759 759 760 760 760 760 761 761 761 762 762 763 764 764 765 765 765 765 765 765 765 765 766 767 767 768 768 768 769 770 770 770 771 772 772 773
768 767 767 766 766 765 765 765 765 764 764 763 763 762 761 761 761 760 760 760 760 760 760 760 760 759 759 759 758 757 757 757 757 757 757 757 757 757 758 758 759 759 759 760 760 761 761 762 762 762 762 762 762 762 762 763 764 765 765 765 765 766 767 767 768 768 769 769 770
767 766 766 765 765 765 764 764 764 763 763 762 761 761 760 760 760 760 759 759 759 758 758 758 758 758 757 757 756 756 755 755 755 755 755 755 755 755 755 755 756 756 756 757 758 758 759 759 759 759 759 759 759 759 759 760 761 761 762 762 763 764 764 764 765 765 766 767 767
766 765 765 764 764 764 763 763 762 762 761 761 760 760 760 759 759 758 758 757 757 757 757 756 756 756 756 755 755 754 754 753 753 753 753 753 753 753 753 753 753 753 754 755 755 756 756 757 756 756 755 756 756 756 757 758 758 759 759 760 760 761 761 762 762 763 764 764 765
765 764 764 763 763 762 762 761 761 760 760 760 759 758 758 758 757 757 756 756 756 755 755 755 755 755 754 754 753 753 752 752 752 751 751 751 751 750 750 750 750 751 751 752 753 754 754 754 754 753 753 753 754 754 755 755 755 756 756 757 758 758 759 759 760 760 761 762 762
764 763 762 762 761 761 760 760 760 759 759 758 757 757 756 756 755 755 755 755 754 753 752 753 753 752 752 751 751 751 751 750 750 750 750 749 749 749 748 748 749 749 749 750 750 751 751 751 751 750 750 751 752 752 753 753 753 754 754 754 755 756 756 756 757 758 759 759 760
763 762 761 761 760 760 759 759 758 757 757 756 755 755 755 754 754 753 753 752 752 751 750 750 750 750 750 749 749 749 749 748 748 748 747 747 746 746 746 746 746 747 747 748 748 749 748 748 748 748 748 749 750 750 750 751 751 751 752 752 753 753 753 754 755 755 756 757 758
762 761 760 760 759 758 758 757 756 756 755 755 754 753 753 752 752 751 751 750 749 749 748 748 748 748 747 747 746 746 746 746 746 745 745 744 744 744 744 744 744 745 745 745 746 746 745 745 745 745 745 746 746 747 748 748 749 749 749 750 750 750 751 752 753 754 755 755 755
761 760 760 759 758 757 756 756 755 754 754 753 752 751 751 750 750 749 749 748 747 746 746 746 745 745 745 744 744 744 744 744 743 743 742 742 742 742 742 742 742 742 742 743 743 743 743 742 742 742 743 743 744 744 745 745 746 746 746 747 747 748 749 750 751 751 752 752 753
760 759 758 758 757 756 755 755 754 753 752 751 750 750 749 748 748 747 747 746 745 745 744 743 743 742 742 742 741 741 741 741 740 740 740 739 739 739 739 739 739 739 740 740 740 740 740 740 740 740 740 741 741 742 742 743 743 743 744 744 745 745 746 747 748 749 749 750 750
759 758 757 756 755 755 754 753 752 751 750 750 749 748 747 747 746 745 745 744 743 742 742 741 740 740 740 739 739 739 738 738 737 737 736 736 736 736 736 736 736 736 736 737 737 737 737 737 737 738 738 738 739 739 740 740 740 740 741 741 742 743 744 745 745 746 746 747 747
758 757 756 755 754 754 753 752 751 750 749 748 747 746 746 745 744 743 743 742 741 740 740 739 738 738 737 736 736 736 735 735 734 734 733 733 733 733 733 733 733 733 734 734 734 734 734 734 735 735 735 736 736 737 737 738 738 738 738 739 740 740 741 742 743 743 744 745 745
756 755 755 754 753 752 751 750 750 749 748 747 746 745 744 743 742 741 741 740 740 739 738 737 736 735 735 734 734 733 733 732 731 730 730 730 730 730 730 730 730 730 731 731 731 731 731 732 732 733 733 733 734 734 735 735 735 736 736 737 737 738 738 739 740 741 741 742 742
755 754 753 752 751 750 750 749 748 747 746 745 744 743 742 741 740 740 739 738 737 737 736 735 734 733 733 732 732 731 730 730 729 728 727 727 727 727 727 727 727 728 728 728 728 728 729 729 730 730 730 731 731 731 732 733 733 733 734 734 735 735 736 736 737 738 739 739 740
754 753 752 751 750 749 748 747 746 745 744 743 742 741 740 740 739 738 737 736 735 735 734 733 732 731 730 730 729 729 728 727 727 726 725 725 724 724 724 724 725 725 725 725 725 725 725 726 727 727 728 728 728 729 729 730 730 731 731 732 732 733 733 734 735 735 736 736 737
752 751 750 749 748 747 746 745 745 744 743 742 740 740 739 738 737 736 735 734 733 732 731 730 730 729 728 727 727 726 725 725 724 724 723 722 722 721 721 722 722 722 722 722 722 722 723 723 724 725 725 725 725 726 726 727 728 728 729 729 730 730 731 731 732 733 733 734 735
750 750 749 748 747 746 745 744 743 742 741 740 739 738 737 736 735 734 733 732 731 730 729 728 727 726 725 725 724 723 723 722 722 721 720 720 720 719 719 719 719 719 719 719 719 719 720 720 721 722 722 723 723 723 724 725 725 726 726 727 727 728 728 729 730 730 731 731 732
749 748 747 746 745 744 743 742 741 740 739 738 737 735 735 734 732 731 730 730 729 728 727 726 725 724 723 722 722 721 720 720 719 718 718 717 717 717 716 716 716 716 715 715 716 716 717 718 718 719 719 720 720 720 721 722 722 723 723 724 725 725 726 726 727 728 728 729 730
747 746 745 744 743 742 741 740 739 738 737 735 735 733 732 731 730 729 728 727 726 725 724 723 722 721 721 720 719 718 718 717 716 716 715 715 714 714 714 714 713 713 712 712 713 714 715 715 715 716 716 717 717 718 719 719 720 720 721 721 722 723 723 724 725 725 726 726 727
745 744 743 742 741 740 739 738 737 735 735 733 732 731 730 729 728 727 726 725 724 723 722 721 720 719 718 717 716 716 715 715 714 713 712 712 712 711 711 710 710 710 709 710 710 711 712 713 713 714 714 714 715 715 716 716 717 718 718 719 720 720 721 721 722 723 723 724 725
743 742 741 740 739 738 736 735 735 733 732 731 730 729 727 726 725 724 723 722 721 720 719 718 718 717 716 715 714 713 712 711 711 710 710 709 709 709 708 708 707 706 706 707 708 709 710 711 711 712 712 711 712 712 713 714 715 715 716 717 717 718 718 719 719 720 721 722 723
741 740 739 738 737 735 734 733 732 731 730 729 728 726 725 724 723 722 720 719 718 717 716 716 715 714 714 713 711 710 710 709 708 708 707 707 706 706 705 705 704 704 704 704 705 706 707 708 709 710 710 710 709 710 710 711 712 713 713 714 714 715 715 716 717 718 719 720 720
739 738 737 736 735 733 732 731 730 729 728 726 725 724 723 722 720 719 718 717 715 715 714 713 712 712 711 710 709 707 707 706 705 705 705 704 703 703 702 702 702 701 701 702 703 704 705 705 706 707 708 708 707 707 707 708 709 710 710 711 711 712 712 713 714 715 716 718 719
737 736 735 734 732 731 730 729 728 726 725 724 723 722 721 719 718 717 715 714 713 712 711 711 710 709 708 707 706 705 704 703 703 702 702 701 701 700 700 700 699 699 699 700 700 701 702 703 704 704 705 705 705 705 705 705 706 707 707 707 708 708 709 710 711 713 714 715 716
735 734 733 731 730 729 728 726 725 724 723 722 721 720 719 717 716 714 713 712 711 710 709 708 707 706 705 704 704 703 702 701 700 700 700 699 698 698 697 697 696 696 696 697 698 699 700 700 701 701 702 703 703 703 702 702 703 703 704 704 704 705 706 707 709 710 711 712 714
733 732 730 730 728 727 725 724 723 722 721 720 719 718 716 715 714 712 711 710 709 707 706 706 705 704 702 701 701 700 699 699 698 697 697 696 695 695 695 694 694 694 694 695 696 697 697 698 698 698 699 700 700 700 700 700 700 700 700 700 700 701 702 704 705 706 708 710 711
730 730 729 727 726 725 723 722 721 720 719 718 717 716 714 713 711 710 709 708 707 706 705 703 702 701 700 699 698 698 697 696 695 695 694 694 693 693 692 692 692 692 692 693 694 694 695 695 695 696 696 697 698 698 698 697 697 696 696 697 697 698 699 700 702 703 705 706 708
729 727 726 725 724 722 721 720 719 718 717 716 715 714 712 711 709 708 706 705 705 704 702 701 700 699 698 697 696 695 694 694 693 692 692 691 691 690 690 690 689 689 690 691 691 692 692 693 693 693 694 695 695 695 695 695 695 694 694 694 694 695 696 698 699 700 702 703 705
726 725 724 723 721 720 719 718 717 716 715 714 712 711 710 709 707 706 705 704 703 701 700 699 698 697 696 695 694 693 692 691 690 690 690 689 689 688 688 687 686 687 688 689 689 690 690 690 691 691 692 692 692 692 692 692 692 691 691 691 691 693 694 695 696 698 699 700 702
724 723 722 720 719 718 717 716 715 714 713 711 710 709 708 706 705 704 703 702 700 699 698 697 696 695 694 692 691 690 690 689 688 687 687 687 686 686 685 684 684 684 685 686 687 687 688 688 689 689 690 690 690 690 690 690 690 689 689 689 689 690 691 693 694 695 696 698 699
722 721 720 718 717 716 715 714 713 712 710 709 708 707 705 704 703 702 701 700 699 697 696 695 694 693 692 690 689 688 687 687 686 685 685 684 684 684 683 682 681 681 682 684 685 685 685 686 686 687 687 687 687 687 687 687 687 687 686 686 686 687 689 690 691 693 694 695 696
720 719 717 716 715 714 713 712 711 710 708 706 705 704 703 702 701 700 699 698 697 695 694 693 692 690 690 688 687 686 685 684 684 683 682 681 681 681 680 680 679 679 680 681 682 683 683 684 684 685 685 685 685 685 685 685 685 684 684 684 684 685 686 688 689 690 691 692 693
717 716 715 714 712 711 710 710 709 707 705 704 703 702 701 700 699 698 697 696 695 694 692 691 689 688 687 686 685 684 683 682 681 680 680 679 678 678 678 678 677 676 677 678 679 680 681 681 682 682 683 682 682 682 682 682 682 682 682 682 682 683 684 685 687 688 688 689 691
715 714 712 711 710 709 708 707 706 705 703 702 701 700 699 698 697 696 695 694 693 692 690 689 687 686 685 685 683 682 680 679 679 678 677 676 676 676 676 675 675 674 675 676 677 677 678 679 679 680 680 680 680 680 680 680 680 680 680 680 680 681 682 683 684 685 686 687 689
712 711 710 709 708 707 706 705 703 702 701 700 699 698 697 696 695 694 693 692 691 690 688 687 685 684 683 682 681 680 678 676 676 675 675 674 673 673 673 673 672 672 672 673 674 675 675 676 677 677 678 678 678 678 678 677 677 677 677 677 678 679 680 681 682 683 684 685 686
Wind_Speed
33 32 32 32 31 31 31 31 31 31 31 31 31 31 31 31 31 32 32 32 33 34 35 35 36 37 37 37 37 37 38 39 39 40 40 41 41 42 42 43 43 42 42 41 41 40 39 39 38 38 37 37 37 37 37 36 36 35 35 35 35 35 35 35 35 34 34 34 34
32 32 32 31 31 30 30 31 31 31 31 31 32 32 32 32 32 32 33 33 34 35 35 36 36 36 36 36 37 37 38 38 39 40 40 41 41 41 42 42 42 42 42 41 41 39 39 38 38 37 37 36 36 36 36 37 36 35 35 36 35 34 34 34 35 35 35 35 35
29 30 30 30 30 30 30 30 31 32 32 32 32 32 32 32 33 33 33 34 34 35 35 35 36 36 36 36 37 37 37 38 38 39 40 40 41 41 41 41 42 42 42 42 41 40 39 38 37 37 37 36 36 36 36 36 36 35 35 36 35 34 33 33 34 34 34 34 34
25 26 27 28 29 30 30 30 31 32 32 32 32 32 32 33 33 34 34 34 34 34 34 35 35 36 36 36 36 37 37 37 38 38 39 40 40 40 41 41 41 42 42 42 41 40 39 38 37 36 36 37 37 37 36 35 35 35 35 36 35 34 33 33 33 33 33 33 34
21 22 24 25 26 28 29 30 30 31 31 31 31 31 32 33 33 34 34 34 34 34 35 35 35 35 36 36 36 37 37 37 37 37 38 39 40 40 40 40 41 41 42 41 41 41 40 39 37 36 36 36 37 38 37 36 35 34 35 34 34 34 33 33 32 32 32 32 33
18 19 20 21 23 24 26 27 28 29 30 30 30 30 31 32 32 33 33 34 35 35 35 34 34 35 35 36 36 36 36 36 36 37 37 38 39 39 40 40 41 41 41 41 41 41 40 39 37 36 36 36 36 37 37 36 35 34 34 33 33 33 33 33 32 32 32 32 32
16 17 18 19 20 22 23 24 26 27 27 28 29 30 31 31 32 33 34 34 34 34 34 34 34 34 35 35 36 36 36 36 36 37 37 38 38 39 40 40 41 41 41 41 41 41 40 39 37 36 35 35 35 36 36 35 35 34 33 33 32 32 32 33 32 31 31 32 33
16 17 17 18 19 20 21 23 24 24 26 27 28 30 31 31 32 32 33 33 33 34 34 34 34 35 35 36 36 37 37 37 37 37 37 38 38 39 39 40 40 41 41 41 41 40 40 39 38 37 36 35 34 34 35 35 35 35 34 34 33 32 32 33 33 32 32 33 34
16 16 17 18 18 19 20 21 22 23 24 26 27 29 30 30 31 32 32 33 33 33 34 34 34 34 35 35 36 37 37 37 37 37 37 38 38 38 39 39 39 40 40 41 41 41 40 39 38 38 37 36 35 35 35 35 35 36 36 35 33 32 32 32 33 33 33 33 34
16 16 17 17 18 19 19 20 21 22 23 25 27 28 29 29 30 31 32 33 33 33 33 33 34 34 34 35 36 37 37 38 37 37 37 38 38 38 38 39 39 39 39 40 40 40 39 39 38 38 38 38 37 36 35 35 36 37 37 35 33 32 32 32 33 33 33 33 33
16 16 16 17 17 18 19 20 21 22 23 24 26 27 28 29 30 31 32 32 33 33 33 34 34 33 34 35 36 37 37 37 37 37 37 37 38 38 38 39 39 39 39 39 39 38 38 37 37 38 39 38 37 36 35 35 36 37 37 36 35 34 33 33 33 33 33 32 33
15 15 15 16 17 17 18 19 20 22 23 24 25 27 28 29 30 30 31 32 32 33 34 34 34 34 34 35 35 36 36 36 37 37 37 37 38 38 39 39 39 39 39 38 38 37 37 37 38 39 39 38 37 36 35 35 36 36 37 37 36 35 34 34 34 33 32 32 32
13 14 14 15 15 16 18 19 20 21 23 24 25 26 27 28 29 30 30 31 32 33 34 34 34 34 35 35 35 35 36 36 36 37 37 38 38 38 38 39 39 38 38 38 38 37 37 38 39 39 39 38 37 36 36 36 36 36 37 36 36 35 35 35 35 33 32 32 32
12 13 13 13 14 15 16 17 19 20 22 23 24 25 26 27 28 28 29 30 32 33 34 34 34 35 35 35 35 35 36 36 36 36 37 38 38 38 38 38 38 38 38 38 37 37 38 38 39 40 40 40 39 38 38 37 37 37 38 37 37 36 36 36 35 34 33 32 33
12 12 12 12 13 13 14 16 17 18 20 22 23 24 25 26 27 28 28 30 31 32 33 34 34 35 35 36 36 36 36 36 36 36 37 38 38 38 38 38 38 38 38 37 37 38 39 39 40 40 40 40 40 39 39 39 39 39 39 39 39 38 37 37 36 35 35 34 34
12 12 12 12 13 13 14 14 15 16 18 20 21 22 23 25 26 27 28 29 30 31 32 33 34 35 35 36 36 36 35 35 36 36 37 37 37 38 37 37 37 38 38 38 38 38 39 40 40 40 40 40 40 40 40 40 40 40 40 40 40 40 39 38 37 36 36 36 36
12 12 12 13 13 14 14 15 15 16 17 18 19 20 21 23 25 26 27 29 30 31 32 33 33 34 35 35 36 35 35 35 36 36 37 37 38 38 38 38 38 38 38 38 38 39 39 40 40 40 40 40 40 40 40 40 40 41 41 41 41 41 40 39 38 38 37 37 37
12 12 13 13 14 14 15 15 16 16 17 17 18 19 19 21 22 24 26 28 29 30 31 32 33 33 34 35 35 35 35 35 36 36 37 37 38 38 38 38 38 38 38 38 39 40 40 40 40 40 40 40 40 40 40 40 40 41 41 41 41 41 41 40 39 39 38 38 38
12 13 13 14 14 15 15 16 17 17 18 18 19 19 20 20 21 22 24 26 28 29 31 32 33 33 33 34 34 34 34 35 36 36 37 37 38 38 38 38 38 38 38 39 39 40 40 40 40 40 39 39 39 39 39 40 40 40 41 41 41 41 41 41 41 40 39 39 39
12 13 14 14 15 16 16 17 17 18 19 19 20 20 21 21 21 22 23 25 26 27 29 31 32 33 33 34 34 34 35 35 35 36 37 37 38 38 38 38 38 38 38 39 39 40 40 40 39 39 39 40 40 39 39 39 39 39 40 40 40 41 41 41 41 41 41 41 40
13 14 14 15 16 17 17 18 18 19 20 21 21 22 22 22 22 22 23 23 24 26 28 30 31 33 34 34 34 35 35 35 35 36 37 37 38 38 38 38 38 38 38 39 39 39 39 39 39 39 39 40 40 40 39 39 39 39 39 39 40 40 41 41 41 42 42 41 41
13 14 15 15 16 17 18 19 19 20 21 22 22 23 23 23 23 23 23 23 24 25 26 28 30 32 33 34 35 35 36 36 36 36 36 37 37 38 38 38 37 38 38 39 39 39 39 39 39 39 39 39 40 40 40 39 39 38 38 38 39 39 40 40 41 41 42 42 42
14 15 15 16 17 18 18 19 20 21 22 23 24 24 24 24 25 24 24 24 24 24 25 27 28 30 31 33 34 35 36 36 36 36 37 37 37 37 37 37 37 37 38 39 39 39 38 38 38 38 39 39 39 40 40 39 39 38 38 38 38 39 39 40 40 41 42 42 42
16 16 16 17 17 18 19 20 21 22 23 24 25 25 25 26 26 26 25 25 25 25 25 26 27 28 30 31 33 34 35 36 36 37 37 37 37 37 36 36 36 37 38 39 39 38 38 37 37 38 38 39 39 39 39 39 38 38 38 37 37 37 38 39 40 40 41 41 41
17 17 18 18 18 19 20 21 22 23 24 25 26 26 27 27 27 26 26 26 26 26 26 26 27 28 29 30 32 33 34 35 36 37 37 37 36 36 36 36 36 36 38 38 38 37 36 35 35 36 37 38 38 38 38 38 38 38 37 37 37 37 36 37 38 39 40 41 41
20 20 20 19 19 20 21 22 23 24 25 26 27 28 28 28 28 28 28 28 28 28 27 27 27 28 28 29 31 32 33 34 35 36 36 36 36 36 36 35 36 36 37 37 36 35 33 32 32 33 34 35 36 36 36 36 37 37 37 36 36 36 35 35 35 37 38 39 40
22 22 21 21 21 22 22 22 23 25 26 27 28 29 29 29 29 29 29 29 29 29 29 28 28 28 28 29 30 31 32 33 34 35 36 36 36 36 36 36 36 37 37 37 35 34 32 31 31 30 31 33 34 35 34 34 35 36 36 35 35 35 34 34 35 35 35 37 38
25 24 24 23 23 23 23 23 24 25 27 28 29 29 30 30 30 30 31 31 31 30 30 29 29 29 28 29 29 31 32 33 33 34 35 35 35 36 36 36 36 37 37 36 34 33 32 32 31 31 31 31 32 34 34 34 34 33 33 34 34 34 34 34 34 33 33 33 35
27 27 26 26 25 25 24 24 25 26 27 28 29 30 31 31 31 32 32 32 32 31 31 30 30 29 29 29 30 30 31 32 33 33 34 34 34 35 36 36 36 36 36 35 33 32 32 31 31 32 32 31 31 32 32 32 32 31 31 32 32 33 33 33 32 32 31 31 32
30 29 29 28 27 26 26 25 25 26 27 28 30 30 31 32 32 33 33 33 32 32 31 31 30 29 29 30 30 30 31 31 32 32 33 33 34 35 35 35 35 36 35 34 32 31 31 31 31 31 32 32 31 30 30 30 30 30 30 30 31 32 32 32 32 31 31 30 30
32 32 31 31 29 28 27 26 26 26 27 29 30 31 32 32 33 33 33 33 33 33 32 31 30 30 31 31 31 31 31 31 31 31 32 32 33 34 35 35 35 36 35 33 32 31 31 30 31 31 31 32 32 31 30 30 31 31 30 30 31 31 32 31 31 31 31 31 30
34 34 34 33 31 30 28 26 26 26 27 29 30 31 32 33 34 34 34 33 33 32 32 31 31 31 31 31 31 31 31 31 31 31 32 32 33 34 34 35 35 35 35 33 32 31 30 30 30 30 30 31 31 31 31 31 31 32 32 32 32 33 32 32 32 32 31 32 30
36 36 36 34 33 31 29 27 26 27 27 29 30 32 33 34 34 35 34 34 32 32 31 31 31 31 31 31 31 31 31 31 31 31 32 32 32 33 34 34 34 34 33 32 31 31 30 30 30 30 30 30 31 32 32 31 31 31 32 32 33 33 33 32 32 31 31 31 31
37 37 37 35 34 32 30 28 27 27 28 29 30 32 33 34 34 35 34 34 32 31 31 30 30 30 31 31 31 31 31 31 31 31 31 31 32 32 33 33 33 32 31 30 30 29 30 30 30 30 30 30 30 31 32 31 31 31 31 32 33 32 32 33 33 32 32 32 31
38 37 36 36 34 33 30 28 27 27 27 29 30 32 33 34 34 34 34 33 32 31 30 30 30 30 30 30 31 31 31 31 31 31 31 31 31 31 32 33 33 33 31 29 29 28 29 29 29 29 29 29 30 30 31 31 30 30 31 32 32 33 33 33 33 33 33 33 32
37 36 35 35 35 33 31 29 28 27 27 29 30 32 33 34 33 33 33 32 31 30 29 29 29 29 29 30 30 30 31 31 31 31 31 30 30 31 32 33 34 34 32 30 29 28 28 28 28 28 28 28 29 29 30 29 28 28 30 31 32 32 32 32 32 32 33 33 33
36 35 35 35 34 33 31 29 28 27 27 29 30 31 32 33 33 32 31 30 28 28 28 28 28 28 28 29 30 30 31 31 31 31 31 30 30 30 31 32 34 34 32 30 29 28 28 28 28 27 27 27 28 28 28 27 26 26 27 29 31 31 31 31 31 32 33 34 34
36 35 35 35 34 33 31 29 28 27 28 29 31 32 32 32 31 31 30 28 27 27 28 28 28 28 29 30 30 31 31 31 31 30 30 30 30 30 30 31 33 33 32 31 29 28 28 28 28 27 27 27 27 27 26 25 25 25 26 26 27 28 29 29 29 30 32 34 34
36 35 35 34 34 33 31 29 28 28 29 30 31 32 32 31 30 29 29 27 27 27 27 28 29 29 30 30 30 30 31 31 31 30 30 30 31 30 30 31 32 32 32 30 29 28 28 28 28 28 27 27 27 26 25 24 25 25 25 24 24 25 26 27 27 27 29 32 33
36 36 35 34 34 32 31 29 29 29 30 30 31 31 31 30 30 29 28 27 27 27 28 29 30 30 30 30 29 30 31 31 31 31 30 30 31 30 30 30 31 31 31 29 28 27 27 27 27 28 27 27 27 27 25 24 24 24 24 23 22 22 23 24 25 25 26 29 31
36 36 35 34 33 32 31 30 30 31 31 31 31 31 31 30 29 28 28 28 28 28 29 29 30 30 30 30 29 29 30 31 31 31 31 30 30 30 29 29 30 30 31 29 28 27 26 27 27 27 27 27 27 26 25 23 23 23 23 22 21 20 20 22 23 24 25 27 28
Wind_Direction
255 254 253 253 252 251 251 251 251 251 251 251 250 249 249 247 246 246 246 245 244 244 246 247 248 249 249 248 246 244 243 242 240 238 237 236 235 235 234 234 234 233 233 233 232 231 231 231 230 229 230 230 230 230 230 229 228 227 226 226 226 227 227 227 228 227 227 226 225
260 258 257 256 255 255 254 254 254 254 253 252 252 251 251 249 248 248 248 247 246 247 248 249 250 250 250 250 249 247 246 244 242 240 238 237 237 236 235 235 234 234 234 233 232 231 230 230 229 229 229 230 230 230 230 230 228 227 227 227 227 227 227 227 228 228 227 226 225
269 265 262 260 258 257 256 256 256 256 256 255 254 254 253 252 251 250 250 250 250 250 250 250 251 251 251 251 251 250 248 246 244 242 240 238 238 237 236 235 235 235 234 234 233 232 231 230 229 229 229 230 230 230 229 229 228 227 227 227 227 226 226 227 227 227 227 226 225
279 274 270 266 263 260 259 258 259 259 259 259 258 256 255 254 253 253 253 253 252 251 250 251 251 252 252 252 252 251 250 248 246 243 241 240 239 237 237 236 235 235 235 234 233 232 231 230 229 229 229 230 230 230 229 229 228 227 227 227 227 226 226 227 227 226 225 225 224
287 283 279 274 271 267 265 264 263 263 263 263 261 259 257 256 255 255 254 254 253 252 252 253 253 253 253 253 252 252 251 249 247 244 243 241 240 239 238 237 236 235 235 235 234 233 232 231 230 229 230 230 231 231 230 229 228 227 227 227 227 226 226 226 226 225 224 224 223
290 287 284 281 277 274 271 269 267 267 266 265 263 260 259 258 256 255 255 254 255 255 255 254 253 252 252 252 252 252 251 250 247 245 243 242 241 240 238 237 237 236 236 235 234 234 232 231 230 230 230 231 232 232 231 230 228 227 226 226 226 225 225 225 225 224 223 223 222
294 290 286 283 279 277 274 273 271 270 269 267 264 262 261 260 259 258 257 258 258 257 256 254 253 251 251 251 251 251 250 249 248 246 245 243 242 241 239 238 237 237 236 235 234 233 232 231 229 230 231 231 232 232 231 229 227 226 226 225 225 225 224 224 224 223 222 222 221
304 297 292 287 283 280 278 276 275 273 271 269 267 266 265 265 263 262 262 261 260 258 257 255 253 252 251 250 250 250 250 249 248 247 246 244 243 242 240 239 238 237 236 235 234 233 232 230 230 230 230 231 231 231 231 229 227 226 225 225 225 225 224 223 223 223 222 221 221
316 309 303 297 292 287 284 281 278 276 274 272 271 271 270 269 268 266 264 263 262 261 259 257 255 253 252 251 251 251 251 250 249 248 247 245 243 242 241 240 238 236 236 235 234 233 232 230 230 230 230 230 230 230 230 228 226 225 225 225 225 224 224 223 222 222 221 221 221
322 318 313 307 301 296 292 288 284 281 278 276 276 275 275 273 271 269 267 267 266 264 261 259 257 255 253 251 251 251 251 251 250 249 248 246 244 243 241 240 238 237 236 234 233 232 231 230 230 230 230 230 230 230 229 228 226 225 225 225 224 224 223 223 222 221 221 221 220
324 321 318 314 309 305 300 295 290 286 283 281 280 279 278 276 274 273 272 271 268 265 263 262 259 257 254 253 252 252 251 251 250 249 248 247 246 245 243 241 240 238 236 235 233 232 231 230 230 231 231 231 230 229 229 228 226 225 225 225 224 223 223 222 221 220 220 220 220
327 324 320 317 313 309 304 300 296 292 289 286 284 282 281 279 277 276 274 271 268 267 266 265 262 259 257 255 254 253 252 251 250 250 249 248 247 246 245 243 241 239 238 236 233 231 230 230 230 230 231 231 230 229 228 228 227 226 225 225 224 223 223 222 221 220 219 219 219
332 328 324 320 316 311 306 303 300 297 294 291 289 287 285 283 282 279 276 272 270 269 268 267 264 261 259 258 256 255 253 252 251 250 249 249 248 247 246 244 242 240 238 237 234 232 231 230 230 230 230 230 229 229 228 228 227 226 226 225 224 224 223 222 221 220 219 218 218
341 336 331 326 320 314 309 304 301 299 297 295 293 292 290 288 286 282 278 274 272 271 269 268 265 263 261 260 258 256 254 253 252 250 250 249 248 247 246 244 243 241 239 237 235 233 232 231 231 231 230 230 229 229 228 228 227 227 226 225 225 224 224 223 222 220 218 217 218
350 346 341 335 328 322 315 310 306 303 300 297 296 295 293 291 288 285 281 277 275 273 271 268 265 264 263 262 260 258 256 254 252 251 250 249 248 247 245 244 243 241 239 238 236 234 233 233 232 232 231 230 230 229 229 228 228 228 228 227 226 226 225 224 222 220 219 218 218
357 355 351 345 340 334 329 323 317 311 306 302 302 300 297 293 291 288 284 280 278 275 272 269 267 265 264 263 261 259 257 255 253 251 249 248 247 246 245 244 243 242 240 238 237 235 235 234 234 233 232 231 231 230 229 228 228 228 229 228 228 227 226 225 223 221 220 219 218
358 357 354 350 347 343 340 336 331 325 319 315 313 308 302 298 294 290 286 283 280 277 274 271 269 267 265 263 261 259 257 255 253 251 249 248 247 246 245 244 243 242 241 239 238 236 236 235 234 234 233 233 232 231 230 229 229 229 229 229 229 229 227 226 224 222 221 220 219
355 354 353 350 347 344 342 340 337 334 330 326 323 318 312 305 300 294 290 286 282 279 276 275 273 270 267 264 262 260 257 254 253 251 250 249 248 247 246 245 244 243 242 240 239 238 237 236 235 234 234 233 233 232 231 230 230 230 230 230 230 229 229 227 225 224 222 221 221
347 347 346 344 342 341 340 338 336 334 332 329 326 323 319 314 308 301 296 291 287 283 280 277 275 272 269 266 263 261 258 255 254 253 251 250 249 248 247 246 245 244 243 242 241 240 239 237 236 235 234 233 233 232 232 231 231 231 231 230 230 230 229 228 226 225 224 222 222
338 338 337 337 337 336 335 334 332 330 328 327 325 323 321 318 314 307 301 297 293 289 284 280 277 274 271 268 265 263 260 257 255 254 253 252 250 249 247 246 245 244 243 243 242 241 240 238 237 235 234 233 233 232 232 232 231 231 231 231 230 230 229 228 227 226 225 224 224
329 329 329 330 330 330 330 329 328 326 325 323 322 321 319 318 315 310 306 303 299 293 287 282 278 276 273 270 267 265 262 260 257 256 254 253 251 250 249 247 246 245 244 243 242 241 240 239 237 236 235 234 233 233 232 231 231 231 231 231 231 230 230 229 228 226 225 225 224
322 322 322 322 323 324 324 325 324 322 321 320 319 318 317 315 313 311 309 306 301 295 289 285 281 278 275 272 269 267 265 263 260 257 256 254 253 252 250 248 246 245 244 243 242 241 240 239 238 236 235 234 234 233 232 231 231 230 230 230 230 230 230 229 228 227 226 225 225
315 315 315 315 316 318 319 319 319 319 318 318 317 316 314 312 311 310 308 305 301 296 292 288 284 281 278 275 272 270 267 264 262 259 257 256 254 253 251 249 246 244 243 243 242 241 240 239 238 237 235 234 234 233 233 232 231 230 230 230 230 230 229 229 228 227 227 226 226
307 307 308 309 311 312 313 314 315 315 316 316 315 314 312 310 309 307 305 302 300 297 294 291 287 284 281 278 275 271 268 265 263 260 259 256 254 253 251 249 246 245 244 244 243 242 240 239 237 236 235 234 234 233 233 232 231 230 229 229 229 229 229 229 228 228 227 226 226
301 301 302 303 305 306 308 309 311 312 313 314 313 312 311 309 307 305 302 300 298 296 294 292 290 287 284 280 276 273 269 265 263 261 259 257 255 252 250 248 246 245 245 244 243 242 240 239 238 237 235 234 233 233 232 232 231 230 229 229 229 228 228 228 228 228 227 227 226
298 298 298 300 300 302 303 305 307 309 310 312 312 311 310 309 307 304 301 298 297 296 295 292 290 287 284 280 277 273 270 266 264 261 259 257 255 252 250 247 246 245 245 244 243 241 239 237 236 236 235 234 233 232 231 231 231 230 229 229 229 228 228 228 228 228 228 227 227
297 296 296 296 297 298 300 302 305 307 308 310 310 310 309 309 306 303 300 297 296 296 294 291 289 286 283 279 276 273 270 267 265 262 259 257 255 252 250 248 246 246 245 244 243 241 239 237 236 235 234 234 233 231 230 230 230 230 229 229 229 228 228 228 228 228 228 228 228
297 296 295 294 294 295 297 300 302 305 307 309 309 309 308 307 305 302 299 298 296 295 293 290 289 286 282 278 274 272 270 268 265 263 260 257 255 252 250 249 247 247 247 246 243 242 241 240 239 237 235 233 233 232 231 230 230 230 229 229 229 229 229 229 229 228 228 228 228
298 297 295 294 293 293 294 297 300 303 306 308 308 307 306 304 302 301 299 297 296 293 291 290 289 286 281 277 275 273 271 269 266 263 260 257 255 253 251 250 248 248 248 246 244 243 242 241 240 239 237 234 232 231 230 229 229 229 229 229 229 229 229 229 229 229 228 228 228
298 298 296 294 292 291 292 294 298 302 305 306 306 305 303 302 301 300 298 297 295 293 292 291 288 284 280 277 276 273 271 269 266 263 260 256 254 253 252 250 249 249 248 246 244 243 243 242 241 240 239 237 234 231 229 228 227 228 228 229 229 228 228 228 228 228 228 228 228
298 298 297 295 292 290 290 292 297 301 303 304 304 303 301 300 298 298 297 296 295 294 293 291 286 283 281 279 276 273 270 268 266 263 259 256 255 254 253 252 251 250 249 247 245 244 243 242 242 241 240 239 237 234 231 229 228 228 228 228 228 227 227 227 227 227 228 228 228
297 298 297 295 292 289 288 291 295 298 301 302 302 301 299 298 297 297 297 296 294 293 292 289 286 283 282 280 277 274 271 268 265 262 260 257 256 255 254 253 252 251 250 248 247 245 244 244 242 241 240 239 239 238 235 232 231 230 229 229 228 228 226 226 227 227 227 227 226
296 297 297 295 291 288 287 289 292 296 298 299 300 299 298 298 297 297 297 296 294 292 290 288 285 283 281 280 278 275 272 269 266 263 261 259 257 256 255 255 254 253 251 249 248 246 246 245 244 243 241 240 240 241 240 236 233 230 228 228 228 227 226 224 224 224 225 224 224
295 297 296 295 292 289 287 287 290 293 295 297 297 298 298 297 296 296 296 295 294 292 290 288 286 284 282 281 278 276 273 270 268 265 262 260 258 256 255 255 254 253 252 250 248 247 246 246 245 244 243 242 242 242 242 240 236 232 229 229 229 228 225 225 224 224 224 224 224
294 296 296 294 292 289 287 286 288 291 293 294 296 297 297 296 295 295 295 295 294 292 290 289 288 286 284 282 279 276 273 271 268 266 263 261 259 257 255 255 255 254 253 251 249 248 247 247 246 245 244 243 242 242 242 241 238 234 231 229 228 228 227 226 224 224 224 224 224
294 295 294 293 292 289 287 286 287 288 290 292 294 295 296 296 295 295 295 295 294 292 290 290 289 287 285 283 280 278 275 272 270 267 265 262 259 256 255 255 256 256 254 252 250 249 248 247 247 245 244 243 242 242 242 242 240 236 233 231 229 227 227 225 224 224 224 224 223
294 294 293 292 290 288 286 284 284 286 289 292 294 295 295 295 294 295 295 295 293 292 291 290 289 288 286 285 283 281 278 274 270 267 265 262 259 256 255 256 256 257 256 253 251 249 248 248 247 245 244 243 242 241 241 241 241 239 235 231 230 229 226 223 224 224 223 223 223
293 293 292 290 288 286 284 282 283 286 291 294 295 295 295 294 294 294 295 294 292 291 290 290 289 289 288 287 286 284 281 276 272 267 264 262 259 257 255 256 256 257 257 254 251 249 249 248 247 246 243 242 241 240 239 240 240 240 237 232 229 227 225 223 223 222 222 222 223
291 291 290 288 286 283 281 280 284 289 294 296 296 295 294 294 293 294 294 294 292 290 290 289 289 290 290 290 289 287 283 278 274 269 263 260 258 257 256 255 256 257 257 255 252 250 248 248 247 246 244 242 241 239 238 238 239 239 238 234 229 225 222 222 220 220 221 222 223
289 290 288 286 283 280 279 280 286 292 296 297 296 294 294 293 293 294 294 294 292 291 290 290 290 291 292 292 290 288 285 280 276 271 265 260 258 258 256 255 256 257 257 255 252 250 248 247 246 245 244 242 241 240 238 237 237 238 237 234 228 222 219 217 217 218 219 221 222
288 288 286 284 281 278 278 282 289 294 297 297 295 294 294 294 293 294 294 294 293 292 291 291 291 292 293 293 292 289 286 281 277 273 267 262 259 257 255 253 254 255 256 254 252 249 247 246 245 244 243 242 241 240 238 236 236 236 235 232 226 220 216 215 215 216 217 219 220